Carbondale, IL

9:55 AM CDT on June 25, 2017 (GMT -0500)
Southern Illinois

Weather History for KMDH - March, 2014

Change the Weather History Date:

Friday, March 28, 2014

  Actual Average Record
Temperature  
Mean Temperature 52 °F -  
Max Temperature 59 °F 62 °F 87 °F (1910)
Min Temperature 45 °F 39 °F 21 °F (1947)
Degree Days  
Heating Degree Days 13    
Growing Degree Days 2 (Base 50)    
Moisture  
Dew Point 45 °F    
Average Humidity 73    
Maximum Humidity 90    
Minimum Humidity 51    
Precipitation  
Precipitation 0.39 in - - ()
Sea Level Pressure  
Sea Level Pressure 29.90 in    
Wind  
Wind Speed 12 mph (NW)    
Max Wind Speed 20 mph    
Max Gust Speed 30 mph    
Visibility 9 miles    
Events Rain , Thunderstorm    
Averages and records for this station are not official NWS values.
T = Trace of Precipitation, MM = Missing Value Source: NWS Daily Summary

Daily Weather History Graph

Daily Weather History Graph

Search for Another Location

Airport or City:

Trip Planner

Search our weather history database for the weather conditions in past years. The results will help you decide how hot, cold, wet, or windy it might be!

Date:

Astronomy

Mar. 28, 2014 Rise Set
Actual Time 6:48 AM CDT 7:16 PM CDT
Civil Twilight 6:22 AM CDT 7:42 PM CDT
Nautical Twilight 5:51 AM CDT 8:13 PM CDT
Astronomical Twilight 5:19 AM CDT 8:45 PM CDT
Moon 5:16 AM CDT (3/28) 5:14 PM CDT (3/28)
Length of Visible Light 13h 20m
Length of Day
12h 27m
Waning Crescent, 6% of the Moon is Illuminated
Mar 28
Waning Crescent
Mar 30
New
Apr 7
First Quarter
Apr 15
Full
Apr 22
Last Quarter

Hourly Weather History & Observations

Time (CDT) Temp. Windchill Dew Point Humidity Pressure Visibility Wind Dir Wind Speed Gust Speed Precip Events Conditions
12:18 AM 57.9 °F - 53.1 °F 84% 29.76 in 10.0 mi SW 16.1 mph 26.5 mph N/A Thunderstorm Overcast
12:45 AM 57.9 °F - 54.0 °F 87% 29.78 in 9.0 mi WNW 13.8 mph - N/A Thunderstorm Thunderstorm
12:52 AM 57.9 °F - 53.1 °F 84% 29.77 in 8.0 mi WNW 6.9 mph - 0.00 in Rain , Thunderstorm Light Thunderstorms and Rain
1:02 AM 57.0 °F - 52.0 °F 83% 29.77 in 3.0 mi West 19.6 mph 29.9 mph 0.08 in Rain , Thunderstorm Heavy Thunderstorms and Rain
1:09 AM 54.0 °F - 51.1 °F 90% 29.76 in 1.0 mi SW 18.4 mph 29.9 mph 0.33 in Rain , Thunderstorm Heavy Thunderstorms and Rain
1:13 AM 55.0 °F - 51.1 °F 86% 29.74 in 1.5 mi SSW 19.6 mph 27.6 mph 0.35 in Rain , Thunderstorm Heavy Thunderstorms and Rain
1:16 AM 54.0 °F - 51.1 °F 90% 29.71 in 3.0 mi South 19.6 mph - 0.36 in Rain , Thunderstorm Thunderstorms and Rain
1:25 AM 55.0 °F - 51.1 °F 86% 29.71 in 10.0 mi South 15.0 mph 25.3 mph 0.36 in Rain , Thunderstorm Light Thunderstorms and Rain
1:45 AM 55.0 °F - 52.0 °F 89% 29.73 in 10.0 mi South 8.1 mph - 0.36 in Thunderstorm Scattered Clouds
1:52 AM 55.0 °F - 52.0 °F 89% 29.75 in 10.0 mi Calm Calm - 0.36 in Thunderstorm Scattered Clouds
1:59 AM 55.9 °F - 52.0 °F 87% 29.75 in 10.0 mi SW 5.8 mph - N/A   Scattered Clouds
2:52 AM 59.0 °F - 54.0 °F 83% 29.76 in 10.0 mi SW 9.2 mph - N/A   Overcast
3:52 AM 57.9 °F - 53.1 °F 84% 29.79 in 10.0 mi West 9.2 mph - N/A   Overcast
4:01 AM 57.9 °F - 52.0 °F 81% 29.79 in 10.0 mi West 6.9 mph - N/A   Overcast
4:52 AM 53.1 °F - 45.0 °F 74% 29.83 in 10.0 mi NW 13.8 mph 23.0 mph N/A   Overcast
5:14 AM 50.0 °F - 42.1 °F 74% 29.85 in 10.0 mi NW 12.7 mph - N/A   Scattered Clouds
5:52 AM 48.0 °F - 37.9 °F 68% 29.88 in 10.0 mi NW 6.9 mph - N/A   Clear
6:52 AM 45.0 °F 41.2 °F 37.0 °F 74% 29.93 in 10.0 mi WNW 6.9 mph - N/A   Clear
7:52 AM 45.0 °F 39.7 °F 36.0 °F 71% 29.97 in 10.0 mi NW 10.4 mph - N/A   Partly Cloudy
8:52 AM 46.0 °F 43.1 °F 37.0 °F 71% 30.01 in 10.0 mi WNW 5.8 mph - N/A   Mostly Cloudy
9:52 AM 48.0 °F - 39.0 °F 71% 30.03 in 10.0 mi North 11.5 mph - N/A   Scattered Clouds
10:52 AM 52.0 °F - 41.0 °F 66% 30.04 in 10.0 mi North 9.2 mph - N/A   Clear
11:52 AM 54.0 °F - 39.9 °F 59% 30.04 in 10.0 mi NNE 9.2 mph 18.4 mph N/A   Mostly Cloudy
12:52 PM 55.9 °F - 41.0 °F 57% 30.03 in 10.0 mi North 10.4 mph - N/A   Clear
1:52 PM 57.9 °F - 41.0 °F 53% 30.03 in 10.0 mi North 10.4 mph - N/A   Clear
2:52 PM 59.0 °F - 41.0 °F 51% 30.01 in 10.0 mi North 9.2 mph - N/A   Clear
3:52 PM 59.0 °F - 41.0 °F 51% 30.00 in 10.0 mi North 9.2 mph - N/A   Clear
4:52 PM 57.0 °F - 39.9 °F 53% 30.00 in 10.0 mi NNE 6.9 mph - N/A   Clear
5:52 PM 55.0 °F - 41.0 °F 59% 30.01 in 10.0 mi NNW 10.4 mph - N/A   Clear
6:52 PM 53.1 °F - 39.9 °F 61% 30.04 in 10.0 mi NNW 11.5 mph - N/A   Clear
7:52 PM 51.1 °F - 41.0 °F 68% 30.05 in 10.0 mi North 11.5 mph - N/A   Clear
8:52 PM 50.0 °F - 39.9 °F 68% 30.06 in 10.0 mi North 10.4 mph - N/A   Clear
9:52 PM 50.0 °F - 39.9 °F 68% 30.07 in 10.0 mi North 8.1 mph - N/A   Scattered Clouds
10:52 PM 48.9 °F - 39.9 °F 71% 30.07 in 10.0 mi North 13.8 mph - N/A   Overcast
11:52 PM 46.9 °F - 39.9 °F 77% 30.09 in 5.0 mi North 9.2 mph - 0.03 in Rain Light Rain